"Pseudo-MPEC" for P21vZWI

Created 2022 Aug 22 8:23:00 UT using Find_Orb

Click here for an explanation of pseudo-MPECs

 
 Astrometry: 
     P21vZWI* C2022 08 10a3H7-r:;E'mi`S8t!U3rk*$E-qAI^C:VPW(jLMLsS;Za-TbA5dfsF52
     P21vZWI  C2022 08 10C2Zn-)RPxbUjJ[rPT%EhfRB]oL3*EV%J#cVSar3pc8Q5B_:hN[tJF52
     P21vZWI  C2022 08 10ihj#siYiH^m1:FLAstrometry34BPMeHgY6;:1eXTTW'kkp:)c%CF52
     P21vZWI KC2022 08 11dR0RN:XYC9q^-\#f61BH849/NBL-?j_*Bredacted;4xjX[3KRKXH21
     P21vZWI KC2022 08 114NxJ`Arx/ea7ahD'X*eUrc/ujOFBY0(15h,aA;M\R4JQo][Z8-xGH21
     P21vZWI  C2022 08 11IslR@4RSy4d4#quxfHZs7+J`B+u4ls5click;herel'mfpy?o3^)F51
     P21vZWI  C2022 08 11j/$hu'IHr.rX*#SILSds51_+d%R=]B;eUvh$nvv'T4x#;QB4f-sKF51
     P21vZWI KC2022 08 21rR%JIbFOX1+.y/WO+^/_L-=g9_UYlO+d[dh+'5Z_emNJ)Zb9s5F6H36
     P21vZWI KC2022 08 21V9u2sBaX`vBO'Ib'0r0Zjw;=f;TBU)T(Ko:2l\;M`YiHwKXJ[mL%H36
     P21vZWI KC2022 08 21DgB0\vRkas+03for=VJX^0kM2CREm3l?86`[Bexplanation1R47H36

Station data:
(F51) Pan-STARRS 1, Haleakala  (N20.707234 W156.255910)  US/Hawaii.
   Observers J. Bulger, T. Lowe, A. Schultz, M. Willman. Measurers K.
   Chambers, S. Chastel, T. de Boer, L. Denneau, J. Fairlamb, H. Flewelling,
   M. Huber, C.-C. Lin, E. Magnier, Y. Ramanjooloo, R. Wainscoat, R. Weryk.
   1.8-m Ritchey-Chrétien + CCD.
(F52) Pan-STARRS 2, Haleakala  (N20.707382 W156.255910)  US/Hawaii.
   Observers J. Bulger, T. Dukes, T. Lowe, A. Schultz, M. Willman. Measurers
   K. Chambers, S. Chastel, T. de Boer, L. Denneau, J. Fairlamb, H.
   Flewelling, M. Huber, C.-C. Lin, E. Magnier, Y. Ramanjooloo, R. Wainscoat,
   R. Weryk. 1.8-m Ritchey-Chrétien + CCD.
(H21) Astronomical Research Observatory, Westfield  (N39.483054 W87.968270)
   US/Illinois.  Observer R. Holmes. Measurers S. Foglia, L. Buzzi, T.
   Linder, R. Holmes. 0.76-m f/3.0 astrograph + CCD0.81-m f/4.0 astrograph +
   CCD0.61-m f/4.5 astrograph + CCD0.40-m f/5.32 astrograph + CCD.
(H36) Sandlot Observatory, Scranton  (N38.797691 W95.706400)  US/Kansas.
   Observer G. Hug. 0.56-m reflector + CCD.

Orbital elements:  P21vZWI
   Perihelion 2022 Sep 20.48813 +/- 4.93 TT = 11:42:54 (JD 2459842.98813)
Epoch 2022 Aug 21.0 TT = JDT 2459812.5   Earth MOID: 0.7097   AutoNEOCP
M 352.64646148 +/- 1.7              (J2000 ecliptic)
n   0.24119351 +/- 0.0185           Peri.   79.26646 +/- 3.3
a   2.55598889 +/- 0.131            Node   291.22079 +/- 1.0
e   0.3324498 +/- 0.0268            Incl.    3.51198 +/- 0.056
P   4.09                   H 18.5   G  0.15   U 10.1
q 1.70625071 +/- 0.0188    Q 3.40572707 +/- 0.243
From 10 observations 2022 Aug. 10-21; mean residual 0".13
Residuals in arcseconds: 
220810 F52  .12+  .01-    220811 H21  .04-  .11+    220821 H36  .05-  .03+    
220810 F52  .18-  .16+    220811 F51  .06-  .10+    220821 H36  .17+  .01-    
220810 F52  .04+  .12-    220811 F51  .09-  .10+    
220811 H21  .22+  .34-    220821 H36  .12-  .02-    

Ephemerides (geocentric):
Date (UTC) HH   RA             Dec           delta  r     elong  mag " sig PA
---- --------  ------------   ------------  ------ ------ -----  --- --------
2022 08 22 08  01 23 11.305   +15 01 20.49  .93766 1.7205 123.9 20.8 .714 104
2022 08 22 09  01 23 13.355   +15 01 43.36  .93735 1.7205 123.9 20.8 .741 105
2022 08 22 10  01 23 15.402   +15 02 06.21  .93704 1.7204 124.0 20.8 .767 105
2022 08 22 11  01 23 17.446   +15 02 29.05  .93673 1.7204 124.0 20.8 .794 105
2022 08 22 12  01 23 19.487   +15 02 51.86  .93642 1.7203 124.0 20.8 .821 106
2022 08 22 13  01 23 21.524   +15 03 14.66  .93611 1.7203 124.0 20.8 .848 106
2022 08 22 14  01 23 23.559   +15 03 37.44  .93581 1.7203 124.1 20.8 .876 106
2022 08 22 15  01 23 25.590   +15 04 00.20  .93550 1.7202 124.1 20.8 .904 106
2022 08 22 16  01 23 27.619   +15 04 22.95  .93519 1.7202 124.1 20.8 .932 106
2022 08 22 17  01 23 29.644   +15 04 45.67  .93488 1.7201 124.2 20.8 .960 107
2022 08 22 18  01 23 31.666   +15 05 08.38  .93458 1.7201 124.2 20.8 .989 107
2022 08 22 19  01 23 33.685   +15 05 31.06  .93427 1.7201 124.2 20.8 1.02 107
2022 08 22 20  01 23 35.701   +15 05 53.73  .93396 1.7200 124.2 20.8 1.05 107
2022 08 22 21  01 23 37.713   +15 06 16.39  .93365 1.7200 124.3 20.8 1.08 107
2022 08 22 22  01 23 39.723   +15 06 39.02  .93335 1.7199 124.3 20.8 1.11 107
2022 08 22 23  01 23 41.729   +15 07 01.63  .93304 1.7199 124.3 20.8 1.14 107
2022 08 23 00  01 23 43.732   +15 07 24.23  .93274 1.7199 124.4 20.8 1.17 107
2022 08 23 01  01 23 45.733   +15 07 46.81  .93243 1.7198 124.4 20.8 1.20 107
2022 08 23 02  01 23 47.730   +15 08 09.36  .93212 1.7198 124.4 20.8 1.23 108
2022 08 23 03  01 23 49.723   +15 08 31.91  .93182 1.7197 124.5 20.8 1.26 108
2022 08 23 04  01 23 51.714   +15 08 54.43  .93151 1.7197 124.5 20.8 1.29 108
2022 08 23 05  01 23 53.702   +15 09 16.93  .93121 1.7197 124.5 20.8 1.32 108
2022 08 23 06  01 23 55.686   +15 09 39.42  .93090 1.7196 124.5 20.8 1.35 108
2022 08 23 07  01 23 57.667   +15 10 01.88  .93059 1.7196 124.6 20.8 1.39 108
2022 08 23 08  01 23 59.645   +15 10 24.33  .93029 1.7195 124.6 20.8 1.42 108
2022 08 23 09  01 24 01.620   +15 10 46.76  .92998 1.7195 124.6 20.8 1.45 108
2022 08 23 10  01 24 03.592   +15 11 09.17  .92968 1.7195 124.7 20.8 1.48 108
2022 08 23 11  01 24 05.561   +15 11 31.56  .92937 1.7194 124.7 20.8 1.52 108
2022 08 23 12  01 24 07.526   +15 11 53.93  .92907 1.7194 124.7 20.8 1.55 108
2022 08 23 13  01 24 09.489   +15 12 16.29  .92877 1.7193 124.8 20.8 1.58 108
2022 08 23 14  01 24 11.448   +15 12 38.62  .92846 1.7193 124.8 20.8 1.62 108
2022 08 23 15  01 24 13.404   +15 13 00.94  .92816 1.7193 124.8 20.8 1.65 108
2022 08 23 16  01 24 15.357   +15 13 23.24  .92785 1.7192 124.8 20.8 1.69 108
2022 08 23 17  01 24 17.306   +15 13 45.52  .92755 1.7192 124.9 20.8 1.72 108
2022 08 23 18  01 24 19.253   +15 14 07.78  .92725 1.7192 124.9 20.8 1.76 108
2022 08 23 19  01 24 21.196   +15 14 30.02  .92694 1.7191 124.9 20.8 1.79 108
2022 08 23 20  01 24 23.136   +15 14 52.25  .92664 1.7191 125.0 20.8 1.83 108
2022 08 23 21  01 24 25.073   +15 15 14.45  .92634 1.7190 125.0 20.8 1.86 108
2022 08 23 22  01 24 27.007   +15 15 36.64  .92603 1.7190 125.0 20.8 1.90 108
2022 08 23 23  01 24 28.937   +15 15 58.80  .92573 1.7190 125.1 20.8 1.94 108
2022 08 24 00  01 24 30.865   +15 16 20.95  .92543 1.7189 125.1 20.8 1.97 108
2022 08 24 01  01 24 32.789   +15 16 43.08  .92513 1.7189 125.1 20.8 2.01 108
2022 08 24 02  01 24 34.710   +15 17 05.19  .92482 1.7189 125.1 20.8 2.05 108
2022 08 24 03  01 24 36.627   +15 17 27.28  .92452 1.7188 125.2 20.8 2.09 108
2022 08 24 04  01 24 38.542   +15 17 49.35  .92422 1.7188 125.2 20.8 2.12 108
2022 08 24 05  01 24 40.453   +15 18 11.40  .92392 1.7187 125.2 20.8 2.16 108
2022 08 24 06  01 24 42.361   +15 18 33.44  .92362 1.7187 125.3 20.8 2.20 108
2022 08 24 07  01 24 44.266   +15 18 55.45  .92332 1.7187 125.3 20.8 2.24 108